Starlink 30295

operational
NORAD ID: 57683 Int'l Des: 2023-124 Owner: SPXS Country: US Constellation: starlink
LEOCIRCULAR

About Starlink 30295

Description loading...

Live Position

Loading 3D Globe...

Upcoming Passes

Altitude History

Altitude vs Time

uPlot chart will show altitude changes over time

Two-Line Element Set

1 57683U 23124W 25354.78938396 -.00000113 00000-0 83102-5 0 9998
2 57683 53.1599 213.5551 0001361 98.5720 261.5435 15.30192633131483
Epoch: Dec 20, 2025 • Age: 6 hours

Current Status

Altitude 483.4 km
Velocity 7.62 km/s
Sub-Earth Point -25.68°S, 85.42°E
Launch Date Aug 22, 2023
Age 2.3 years
Type internet

Technical Details

Classification Payload
Mass 730.00 kg
Dry Mass 700.00 kg
Total Mass 730.00 kg
Length 0.30 m
Diameter 4.10 m
Span 29.00 m
Shape Box + pan
Manufacturer SPXS
Bus Type Starlink V2M
Phase Status In Orbit
Owner/State SPXS/US

Large Constellations

Loading constellations...